Location: Newark
(45.4422°N, 16.2769°E)
Time: 13:17:57
(UTC+00:00)

Vanguard 2 - Pass Details

Date: 14 December 2019
Orbit: 553 x 2938 km, 32.9° (Epoch: 27 January)

Event Time Altitude Azimuth Distance (km) Brightness Sun altitude
Rises 00:33:59 0° 244° (WSW) 5,678 - -59.2°
Reaches altitude 10° 00:37:27 10° 240° (WSW) 4,939 - -58.7°
Maximum altitude 00:51:56 51° 170° (S) 3,351 - -56.6°
Exits shadow 00:57:31 41° 130° (SE) 3,765 10.8 -55.8°
Drops below altitude 10° 01:08:41 10° 102° (ESE) 5,649 12.2 -54.1°
Sets 01:12:58 0° 98° (E) 6,518 12.7 -53.4°
